Wind_Speed
40 45 46 40 36 36 34 34 28 32 30 34 38 30 34 37 37 29 24 29 33 41 40 46 44 39 37 36 36 37 41 41
38 42 42 41 38 38 32 31 31 29 30 38 41 37 36 37 36 23 13 14 16 23 25 28 25 27 29 33 34 37 37 37
43 41 42 41 38 37 30 26 29 34 32 40 39 41 42 37 38 22 18 16 16 16 14 17 18 21 25 27 28 27 24 27
41 41 41 40 35 34 30 26 29 27 32 36 43 41 39 31 28 24 23 20 19 19 17 12 18 16 17 22 23 24 20 21
42 40 41 38 32 29 29 27 29 22 28 38 40 38 37 28 27 29 25 19 20 20 13 11 9 13 14 19 23 28 22 25
46 44 40 35 31 28 26 25 25 25 27 36 42 39 30 31 29 22 23 22 16 12 6 7 4 9 12 22 23 31 25 13
46 48 41 35 31 27 26 23 25 22 25 33 47 42 25 27 25 24 22 18 15 11 6 5 6 6 11 23 30 23 26 23
46 48 42 34 30 28 26 24 25 20 20 42 41 42 35 28 29 26 22 18 15 13 6 3 10 8 12 17 25 28 21 26
46 45 42 31 28 27 23 23 21 20 22 38 37 42 43 36 31 25 22 17 16 11 6 2 7 12 13 11 25 27 22 26
45 43 42 33 27 25 22 21 23 23 32 47 41 34 40 40 34 33 24 19 19 12 9 3 1 4 8 14 15 22 27 28
44 41 42 33 27 24 23 22 20 28 39 45 47 41 39 35 36 34 31 25 20 15 14 12 8 1 6 10 15 16 19 25
41 41 41 34 26 25 21 17 18 30 34 46 54 45 36 35 27 36 35 28 22 19 18 14 13 8 8 8 11 12 15 19
38 41 38 34 26 24 19 13 17 27 25 37 56 66 52 46 40 34 45 42 31 22 19 17 17 14 16 15 14 12 12 14
39 40 39 32 26 21 18 13 16 25 25 27 35 67 56 57 54 50 48 45 44 43 29 23 20 20 24 20 18 19 16 17
43 41 38 30 25 22 17 16 17 27 28 27 27 48 50 45 52 50 52 47 45 41 34 30 25 24 29 26 23 28 27 28
44 40 38 28 25 23 19 16 15 33 31 33 32 37 39 44 51 53 50 42 43 42 39 35 34 28 23 27 30 32 32 32
44 39 38 28 25 21 18 16 17 34 35 37 39 38 47 53 46 41 42 40 42 45 44 36 36 29 31 35 40 41 39 41
46 41 37 29 24 22 19 19 16 24 43 43 41 45 48 52 50 50 45 46 42 44 43 41 43 40 38 44 44 43 46 50
48 42 38 29 23 24 19 21 15 20 42 49 51 49 52 57 55 54 52 51 52 50 48 46 45 45 49 48 49 49 50 52
46 42 40 28 23 24 20 21 14 21 21 54 56 58 54 59 60 56 54 52 51 53 55 51 51 51 50 49 53 52 52 57
Wind_Direction
275 280 285 291 296 294 290 282 268 262 246 227 213 206 221 219 226 230 232 236 239 235 240 246 246 245 247 244 243 244 241 240
272 274 279 286 293 294 294 285 272 268 238 213 203 210 212 213 200 192 185 198 225 236 240 246 237 227 229 236 234 229 233 233
273 271 276 283 291 296 301 289 280 282 221 216 206 205 207 191 200 192 187 184 201 202 207 212 226 227 232 228 229 221 217 213
271 273 272 278 287 297 302 298 284 273 216 220 207 208 201 192 198 205 180 184 191 199 184 224 239 227 232 228 215 209 204 200
269 264 269 275 282 294 293 303 283 254 235 226 210 199 192 173 174 163 168 168 195 193 170 219 231 207 231 231 209 203 195 201
272 262 265 269 281 289 295 291 282 253 238 226 200 196 174 180 161 169 175 167 168 169 169 214 248 210 210 200 211 224 225 238
267 262 260 261 274 288 294 289 275 249 246 227 203 190 188 187 179 174 184 174 169 166 164 209 260 229 228 210 210 212 220 215
265 260 255 257 267 288 288 288 261 241 237 217 209 201 191 189 185 180 183 180 169 166 169 209 256 280 259 242 240 242 243 228
263 256 251 252 261 284 286 286 247 236 227 220 211 209 211 202 195 198 179 179 178 154 186 194 249 269 268 259 249 253 239 244
257 249 246 247 259 278 281 282 252 241 230 212 217 213 207 209 217 206 196 185 193 175 173 169 260 270 309 266 260 251 249 259
250 243 240 244 255 274 278 290 246 241 231 218 214 212 205 213 216 204 213 204 206 208 217 240 203 71 321 309 298 282 272 253
244 234 233 240 253 266 276 272 238 239 233 221 217 205 197 210 209 206 216 217 222 227 229 229 229 248 294 291 272 275 282 266
232 226 227 237 249 262 272 263 219 235 229 215 221 220 216 215 222 235 228 229 226 236 230 233 232 247 282 281 273 289 294 292
227 220 227 236 244 256 258 260 216 217 235 209 226 220 223 229 235 242 236 218 229 237 245 231 250 255 275 278 270 290 292 289
219 217 225 234 234 253 260 263 218 203 225 203 215 221 224 231 239 233 215 218 227 229 241 246 250 260 275 277 281 296 300 298
214 216 221 222 234 253 260 267 220 200 220 205 187 206 208 213 205 210 213 221 226 231 241 247 259 258 276 269 280 289 293 288
211 214 221 220 238 251 261 260 234 206 205 210 203 193 188 200 208 210 220 224 230 234 239 247 247 256 268 267 275 282 285 289
207 212 218 219 230 248 255 257 240 219 200 213 215 202 200 200 206 209 220 218 226 227 236 246 244 258 270 272 274 276 277 282
207 211 213 214 228 245 256 259 253 229 213 203 213 213 212 212 213 219 224 228 235 243 247 246 250 262 268 269 272 271 274 278
208 213 212 209 219 244 251 259 259 236 229 211 208 216 215 218 223 221 224 228 235 238 244 249 259 266 267 266 266 270 270 276
Height
10690 10689 10688 10689 10687 10685 10682 10680 10679 10678 10682 10679 10678 10679 10681 10682 10685 10687 10686 10689 10694 10699 10702 10708 10715 10718 10720 10723 10725 10727 10729 10733
10683 10682 10681 10680 10679 10677 10674 10672 10670 10670 10671 10670 10670 10670 10674 10679 10680 10681 10682 10684 10690 10693 10698 10705 10711 10712 10714 10716 10717 10719 10722 10728
10674 10675 10674 10673 10672 10668 10665 10664 10662 10662 10663 10665 10664 10665 10670 10675 10679 10679 10681 10683 10688 10692 10697 10704 10706 10707 10708 10710 10712 10715 10719 10725
10662 10666 10667 10667 10666 10662 10658 10657 10656 10654 10656 10659 10661 10666 10673 10674 10677 10677 10679 10682 10687 10693 10695 10702 10703 10703 10704 10706 10709 10714 10718 10723
10652 10654 10657 10659 10659 10656 10654 10651 10650 10648 10653 10654 10661 10667 10671 10673 10675 10675 10678 10682 10688 10693 10693 10700 10700 10700 10701 10704 10707 10711 10715 10718
10642 10643 10646 10650 10651 10650 10648 10645 10643 10642 10645 10648 10659 10667 10666 10669 10671 10675 10678 10681 10686 10689 10691 10694 10698 10697 10698 10703 10707 10710 10712 10715
10631 10633 10636 10641 10643 10643 10641 10638 10636 10637 10638 10643 10653 10660 10663 10667 10669 10672 10677 10679 10682 10687 10689 10690 10695 10695 10697 10700 10703 10706 10710 10714
10621 10622 10626 10632 10634 10635 10633 10631 10630 10630 10634 10640 10648 10656 10661 10664 10669 10671 10673 10676 10679 10684 10687 10688 10691 10694 10696 10699 10701 10705 10710 10713
10612 10613 10618 10623 10626 10627 10625 10624 10623 10624 10629 10635 10641 10649 10656 10661 10666 10669 10672 10674 10678 10680 10684 10686 10687 10691 10693 10696 10699 10702 10705 10708
10602 10603 10609 10615 10618 10619 10618 10617 10617 10617 10621 10629 10636 10643 10649 10656 10661 10666 10668 10671 10674 10677 10681 10684 10686 10688 10691 10694 10696 10699 10701 10703
10592 10594 10601 10607 10611 10612 10612 10611 10609 10611 10613 10621 10630 10637 10643 10649 10654 10660 10665 10666 10668 10673 10678 10681 10683 10684 10687 10690 10692 10694 10696 10698
10583 10585 10592 10599 10603 10604 10605 10604 10603 10605 10606 10612 10621 10630 10635 10644 10649 10654 10659 10661 10664 10668 10672 10676 10679 10680 10683 10687 10690 10691 10692 10691
10573 10579 10584 10591 10596 10598 10598 10597 10596 10599 10599 10605 10612 10620 10630 10636 10644 10650 10653 10656 10660 10663 10667 10672 10675 10677 10679 10683 10686 10688 10688 10688
10565 10571 10577 10584 10589 10591 10592 10590 10590 10594 10595 10599 10603 10615 10624 10630 10637 10642 10648 10648 10653 10659 10662 10667 10669 10673 10675 10678 10679 10681 10682 10682
10558 10564 10570 10576 10581 10584 10585 10584 10584 10588 10590 10596 10597 10605 10616 10622 10628 10634 10638 10642 10647 10652 10657 10660 10663 10667 10670 10671 10671 10672 10674 10677
10552 10557 10562 10568 10573 10576 10577 10577 10577 10582 10585 10591 10594 10597 10606 10616 10622 10626 10631 10637 10642 10647 10652 10654 10656 10658 10661 10663 10665 10665 10668 10668
10544 10552 10557 10562 10567 10569 10570 10570 10571 10575 10580 10585 10590 10593 10599 10609 10616 10621 10625 10631 10635 10641 10646 10648 10649 10651 10655 10657 10659 10659 10660 10660
10533 10542 10549 10554 10559 10562 10562 10563 10564 10567 10573 10578 10584 10589 10594 10599 10605 10612 10616 10623 10628 10633 10639 10643 10644 10645 10646 10648 10649 10650 10650 10651
10527 10532 10540 10546 10552 10555 10555 10556 10557 10560 10565 10571 10576 10582 10587 10592 10596 10602 10608 10615 10621 10626 10630 10633 10636 10638 10639 10639 10638 10638 10638 10639
10521 10528 10533 10538 10545 10549 10549 10550 10551 10554 10557 10563 10567 10572 10577 10583 10590 10597 10602 10607 10613 10618 10622 10625 10627 10627 10629 10630 10630 10629 10628 10627